UAE001 ULLI-OMDB

Flight info

Callsign UAE001
Flight time 5h 46m
Altitude 37000
Route SUGIN1C SUGIN T873 NIRGI T73 DESUD P164 ROKUR T784 OTKOL T787 OKSUD T778 MOF M161 URL M158 ATR W324 AKT P574 RUTIL/N0486F370 P574 ULDUS N39 OBRIX M715 PURKI W32 SRJ L430 TAVNO M324 PATAT L519 PUVAL
Aircraft A359/H-SDE2E3GHIJ3J4J5LM1ORWXY/LB1D1

Departure

Time 2026-05-07 13:05
Airport Pulkovo Airport (ULLI)

Arrival

Time 2026-05-07 18:52
Airport Dubai International Airport (OMDB)
Time Latitude Longitude Altitude Speed Heading
2026-05-07 12:48 59.79749 30.25917 92 ft 0 kts 286°
2026-05-07 12:54 59.79745 30.25945 89 ft 4 kts 283°
2026-05-07 12:55 59.79740 30.25998 93 ft 4 kts 276°
2026-05-07 12:55 59.79739 30.26051 90 ft 4 kts 265°
2026-05-07 12:55 59.79744 30.26101 92 ft 4 kts 234°
2026-05-07 12:55 59.79755 30.26120 92 ft 0 kts 196°
2026-05-07 12:58 59.79751 30.26118 92 ft 6 kts 196°
2026-05-07 12:58 59.79672 30.26059 92 ft 15 kts 206°
2026-05-07 12:58 59.79581 30.25989 92 ft 0 kts 200°
2026-05-07 12:59 59.79553 30.25953 94 ft 12 kts 225°
2026-05-07 12:59 59.79536 30.25880 95 ft 2 kts 264°
2026-05-07 12:59 59.79563 30.25819 93 ft 8 kts 313°
2026-05-07 12:59 59.79593 30.25701 91 ft 13 kts 289°
2026-05-07 13:00 59.79627 30.25495 93 ft 19 kts 288°
2026-05-07 13:00 59.79668 30.25213 94 ft 24 kts 285°
2026-05-07 13:00 59.79710 30.24922 91 ft 16 kts 287°
2026-05-07 13:00 59.79748 30.24667 94 ft 22 kts 285°
2026-05-07 13:01 59.79794 30.24353 90 ft 26 kts 287°
2026-05-07 13:01 59.79851 30.23974 91 ft 31 kts 286°
2026-05-07 13:01 59.79897 30.23663 89 ft 9 kts 287°
2026-05-07 13:01 59.79921 30.23505 90 ft 15 kts 286°
2026-05-07 13:02 59.79957 30.23264 90 ft 21 kts 287°
2026-05-07 13:02 59.80003 30.22951 91 ft 24 kts 286°
2026-05-07 13:02 59.80051 30.22628 89 ft 25 kts 287°
2026-05-07 13:02 59.80099 30.22313 88 ft 23 kts 287°
2026-05-07 13:03 59.80099 30.22065 90 ft 16 kts 239°
2026-05-07 13:03 59.80078 30.22013 89 ft 0 kts 229°
2026-05-07 13:03 59.80068 30.21990 90 ft 8 kts 227°
2026-05-07 13:04 59.79995 30.21934 90 ft 13 kts 159°
2026-05-07 13:04 59.79956 30.22078 91 ft 12 kts 107°
2026-05-07 13:04 59.79897 30.22464 90 ft 58 kts 106°
2026-05-07 13:04 59.79724 30.23625 93 ft 115 kts 106°
2026-05-07 13:05 59.79449 30.25473 96 ft 163 kts 107°
2026-05-07 13:05 59.79077 30.27816 317 ft 188 kts 107°
2026-05-07 13:05 59.78645 30.30432 577 ft 215 kts 106°
2026-05-07 13:05 59.78227 30.33279 1480 ft 215 kts 104°
2026-05-07 13:06 59.77809 30.36234 2089 ft 231 kts 104°
2026-05-07 13:06 59.77358 30.39376 2748 ft 241 kts 104°
2026-05-07 13:06 59.76886 30.42603 3479 ft 246 kts 104°
2026-05-07 13:06 59.76404 30.45875 4221 ft 248 kts 105°
2026-05-07 13:07 59.75910 30.49158 5022 ft 249 kts 105°
2026-05-07 13:07 59.75411 30.52458 5771 ft 250 kts 105°
2026-05-07 13:07 59.74907 30.55789 6497 ft 254 kts 105°
2026-05-07 13:07 59.74420 30.59146 7164 ft 259 kts 104°
2026-05-07 13:08 59.73959 30.62641 7813 ft 265 kts 103°
2026-05-07 13:08 59.73494 30.66206 8521 ft 270 kts 103°
2026-05-07 13:08 59.73012 30.69852 9174 ft 278 kts 104°
2026-05-07 13:08 59.72510 30.73613 9803 ft 286 kts 104°
2026-05-07 13:09 59.71990 30.77486 10314 ft 298 kts 105°
2026-05-07 13:09 59.71437 30.81588 10582 ft 319 kts 105°
2026-05-07 13:09 59.70844 30.85963 10841 ft 339 kts 105°
2026-05-07 13:09 59.70215 30.90589 11176 ft 355 kts 107°
2026-05-07 13:10 59.69562 30.95375 11644 ft 366 kts 107°
2026-05-07 13:10 59.68889 31.00295 12242 ft 373 kts 107°
2026-05-07 13:10 59.68205 31.05281 12866 ft 379 kts 107°
2026-05-07 13:10 59.67508 31.10347 13473 ft 385 kts 108°
2026-05-07 13:11 59.66798 31.15490 14059 ft 390 kts 108°
2026-05-07 13:11 59.66077 31.20695 14595 ft 395 kts 108°
2026-05-07 13:11 59.65343 31.25979 15134 ft 401 kts 109°
2026-05-07 13:11 59.64599 31.31314 15674 ft 406 kts 109°
2026-05-07 13:12 59.63842 31.36723 16209 ft 411 kts 109°
2026-05-07 13:12 59.63074 31.42194 16735 ft 416 kts 109°
2026-05-07 13:12 59.62295 31.47729 17360 ft 419 kts 109°
2026-05-07 13:12 59.61510 31.53291 17981 ft 423 kts 109°
2026-05-07 13:13 59.60708 31.58937 18391 ft 431 kts 110°
2026-05-07 13:13 59.59891 31.64671 18844 ft 436 kts 110°
2026-05-07 13:13 59.59066 31.70454 19397 ft 440 kts 110°
2026-05-07 13:13 59.58229 31.76295 19925 ft 444 kts 110°
2026-05-07 13:14 59.57383 31.82174 20451 ft 448 kts 110°
2026-05-07 13:14 59.56526 31.88111 20967 ft 452 kts 111°
2026-05-07 13:14 59.55658 31.94102 21482 ft 456 kts 111°
2026-05-07 13:14 59.54780 32.00139 21985 ft 460 kts 111°
2026-05-07 13:15 59.53789 32.06146 22497 ft 460 kts 118°
2026-05-07 13:15 59.52344 32.11702 23008 ft 453 kts 131°
2026-05-07 13:15 59.50429 32.16553 23501 ft 447 kts 139°
2026-05-07 13:15 59.48302 32.21050 23883 ft 449 kts 143°
2026-05-07 13:16 59.46085 32.25384 24366 ft 450 kts 144°
2026-05-07 13:16 59.43833 32.29655 24848 ft 451 kts 145°
2026-05-07 13:16 59.41561 32.33939 25310 ft 453 kts 145°
2026-05-07 13:16 59.39289 32.38248 25773 ft 456 kts 145°
2026-05-07 13:17 59.37012 32.42598 26226 ft 458 kts 144°
2026-05-07 13:17 59.34734 32.46977 26672 ft 460 kts 144°
2026-05-07 13:17 59.32450 32.51381 27175 ft 461 kts 144°
2026-05-07 13:17 59.30165 32.55794 27647 ft 463 kts 144°
2026-05-07 13:18 59.27862 32.60232 28013 ft 466 kts 144°
2026-05-07 13:18 59.25544 32.64688 28381 ft 469 kts 144°
2026-05-07 13:18 59.23207 32.69170 28766 ft 472 kts 144°
2026-05-07 13:18 59.20854 32.73675 29149 ft 475 kts 144°
2026-05-07 13:19 59.18488 32.78193 29535 ft 478 kts 144°
2026-05-07 13:19 59.16101 32.82743 29916 ft 481 kts 144°
2026-05-07 13:19 59.13701 32.87308 30267 ft 483 kts 144°
2026-05-07 13:19 59.11287 32.91890 30559 ft 486 kts 144°
2026-05-07 13:20 59.08857 32.96492 30843 ft 489 kts 144°
2026-05-07 13:20 59.06414 33.01111 31135 ft 491 kts 144°
2026-05-07 13:20 59.03957 33.05746 31426 ft 494 kts 144°
2026-05-07 13:20 59.01485 33.10398 31698 ft 496 kts 144°
2026-05-07 13:21 58.99002 33.15062 31978 ft 498 kts 144°
2026-05-07 13:21 58.96509 33.19736 32243 ft 500 kts 144°
2026-05-07 13:21 58.94001 33.24426 32470 ft 502 kts 144°
2026-05-07 13:21 58.91483 33.29128 32726 ft 504 kts 144°
2026-05-07 13:22 58.88953 33.33849 32951 ft 506 kts 144°
2026-05-07 13:22 58.86411 33.38574 33173 ft 508 kts 145°
2026-05-07 13:22 58.83891 33.43246 33443 ft 509 kts 144°
2026-05-07 13:22 58.81329 33.47980 33564 ft 512 kts 144°
2026-05-07 13:23 58.78747 33.52740 33803 ft 514 kts 144°
2026-05-07 13:23 58.76167 33.57496 34141 ft 513 kts 144°
2026-05-07 13:23 58.73591 33.62237 34454 ft 511 kts 144°
2026-05-07 13:23 58.71025 33.66952 34738 ft 510 kts 144°
2026-05-07 13:24 58.68460 33.71651 34982 ft 510 kts 144°
2026-05-07 13:24 58.65890 33.76343 35211 ft 510 kts 144°
2026-05-07 13:24 58.63321 33.81023 35456 ft 509 kts 143°
2026-05-07 13:24 58.60747 33.85703 35658 ft 509 kts 143°
2026-05-07 13:25 58.58180 33.90361 35822 ft 509 kts 143°
2026-05-07 13:25 58.55600 33.95030 35967 ft 510 kts 143°
2026-05-07 13:25 58.53020 33.99690 36182 ft 510 kts 143°
2026-05-07 13:25 58.50439 34.04344 36402 ft 509 kts 143°
2026-05-07 13:26 58.47862 34.08983 36612 ft 509 kts 143°
2026-05-07 13:26 58.45287 34.13607 36821 ft 508 kts 143°
2026-05-07 13:26 58.43576 34.16674 36929 ft 509 kts 143°
2026-05-07 13:26 58.40114 34.22862 36990 ft 512 kts 143°
2026-05-07 13:27 58.35795 34.30561 36984 ft 511 kts 142°
2026-05-07 13:27 58.30615 34.39766 36977 ft 509 kts 142°
2026-05-07 13:28 58.25430 34.48937 36974 ft 509 kts 143°
2026-05-07 13:28 58.20244 34.58068 36973 ft 509 kts 143°
2026-05-07 13:29 58.14928 34.66866 36935 ft 506 kts 146°
2026-05-07 13:29 58.09477 34.75293 36967 ft 505 kts 146°
2026-05-07 13:30 58.04074 34.83659 36960 ft 506 kts 146°
2026-05-07 13:30 57.98656 34.92123 36956 ft 506 kts 146°
2026-05-07 13:31 57.93243 35.00588 36955 ft 506 kts 146°
2026-05-07 13:31 57.87825 35.09030 36948 ft 505 kts 146°
2026-05-07 13:32 57.82426 35.17408 36949 ft 503 kts 146°
2026-05-07 13:32 57.77020 35.25757 36944 ft 503 kts 146°
2026-05-07 13:33 57.71611 35.34076 36936 ft 503 kts 146°
2026-05-07 13:33 57.66198 35.42369 36920 ft 503 kts 146°
2026-05-07 13:34 57.59282 35.57249 36928 ft 519 kts 120°
2026-05-07 13:35 57.56518 35.69709 36922 ft 523 kts 113°
2026-05-07 13:35 57.54047 35.82465 36935 ft 523 kts 112°
2026-05-07 13:36 57.51578 35.95208 36910 ft 523 kts 112°
2026-05-07 13:36 57.49063 36.07876 36924 ft 522 kts 113°
2026-05-07 13:37 57.46531 36.20499 36914 ft 521 kts 113°
2026-05-07 13:37 57.43986 36.33112 36921 ft 521 kts 113°
2026-05-07 13:38 57.41430 36.45700 36916 ft 521 kts 113°
2026-05-07 13:38 57.38865 36.58261 36919 ft 521 kts 113°
2026-05-07 13:39 57.36307 36.70716 36912 ft 520 kts 113°
2026-05-07 13:39 57.33700 36.83323 36914 ft 521 kts 114°
2026-05-07 13:40 57.31095 36.95844 36911 ft 522 kts 114°
2026-05-07 13:40 57.28473 37.08367 36889 ft 522 kts 113°
2026-05-07 13:41 57.25861 37.20770 36905 ft 521 kts 113°
2026-05-07 13:41 57.23223 37.33216 36901 ft 520 kts 114°
2026-05-07 13:42 57.20557 37.45721 36907 ft 520 kts 114°
2026-05-07 13:42 57.17895 37.58130 36897 ft 520 kts 114°
2026-05-07 13:43 57.15650 37.70810 36892 ft 522 kts 107°
2026-05-07 13:43 57.13765 37.83643 36893 ft 522 kts 106°
2026-05-07 13:44 57.11911 37.96564 36893 ft 522 kts 106°
2026-05-07 13:44 57.10039 38.09479 36897 ft 522 kts 107°
2026-05-07 13:45 57.08147 38.22356 36877 ft 521 kts 107°
2026-05-07 13:45 57.06245 38.35170 36888 ft 519 kts 107°
2026-05-07 13:46 57.04333 38.47943 36886 ft 518 kts 107°
2026-05-07 13:46 57.02411 38.60693 36888 ft 518 kts 107°
2026-05-07 13:47 57.00474 38.73438 36893 ft 519 kts 107°
2026-05-07 13:47 56.98523 38.86180 36890 ft 518 kts 107°
2026-05-07 13:48 56.96564 38.98879 36889 ft 517 kts 108°
2026-05-07 13:48 56.94594 39.11552 36889 ft 517 kts 108°
2026-05-07 13:49 56.92611 39.24210 36882 ft 517 kts 108°
2026-05-07 13:49 56.90616 39.36852 36862 ft 517 kts 108°
2026-05-07 13:50 56.88611 39.49463 36886 ft 515 kts 108°
2026-05-07 13:50 56.86599 39.62028 36879 ft 515 kts 108°
2026-05-07 13:51 56.84587 39.74491 36879 ft 515 kts 108°
2026-05-07 13:51 56.82550 39.87030 36877 ft 515 kts 108°
2026-05-07 13:52 56.80507 39.99547 36878 ft 514 kts 108°
2026-05-07 13:52 56.78461 40.12024 36880 ft 513 kts 108°
2026-05-07 13:53 56.76405 40.24474 36880 ft 513 kts 108°
2026-05-07 13:53 56.74338 40.36899 36874 ft 513 kts 108°
2026-05-07 13:54 56.72251 40.49351 36872 ft 514 kts 108°
2026-05-07 13:54 56.70152 40.61790 36860 ft 513 kts 108°
2026-05-07 13:55 56.68047 40.74185 36867 ft 512 kts 109°
2026-05-07 13:55 56.65931 40.86547 36857 ft 512 kts 109°
2026-05-07 13:56 56.63802 40.98905 36856 ft 512 kts 109°
2026-05-07 13:56 56.61236 41.10917 36843 ft 509 kts 121°
2026-05-07 13:57 56.57302 41.21492 36856 ft 505 kts 129°
2026-05-07 13:57 56.53083 41.31660 36857 ft 505 kts 130°
2026-05-07 13:58 56.48823 41.41756 36856 ft 504 kts 130°
2026-05-07 13:58 56.44572 41.51858 36857 ft 504 kts 130°
2026-05-07 13:59 56.40333 41.61943 36859 ft 504 kts 129°
2026-05-07 13:59 56.36091 41.72008 36859 ft 504 kts 129°
2026-05-07 14:00 56.31843 41.82042 36860 ft 503 kts 130°
2026-05-07 14:00 56.27584 41.92055 36865 ft 504 kts 130°
2026-05-07 14:01 56.23317 42.02049 36862 ft 503 kts 130°
2026-05-07 14:01 56.19059 42.11986 36865 ft 501 kts 130°
2026-05-07 14:02 56.15116 42.22324 36867 ft 503 kts 124°
2026-05-07 14:02 56.11400 42.32956 36868 ft 503 kts 124°
2026-05-07 14:03 56.07638 42.43524 36865 ft 503 kts 124°
2026-05-07 14:03 56.03850 42.53907 36870 ft 501 kts 125°
2026-05-07 14:04 55.99937 42.64203 36873 ft 500 kts 127°
2026-05-07 14:04 55.95935 42.74364 36872 ft 500 kts 127°
2026-05-07 14:05 55.91934 42.84523 36876 ft 500 kts 127°
2026-05-07 14:05 55.87945 42.94679 36878 ft 500 kts 127°
2026-05-07 14:06 55.83954 43.04824 36878 ft 500 kts 127°
2026-05-07 14:06 55.79979 43.14995 36876 ft 501 kts 124°
2026-05-07 14:07 55.76426 43.25651 36875 ft 502 kts 122°
2026-05-07 14:07 55.72967 43.36391 36882 ft 501 kts 121°
2026-05-07 14:08 55.69517 43.47124 36883 ft 501 kts 121°
2026-05-07 14:08 55.66054 43.57822 36883 ft 500 kts 121°
2026-05-07 14:09 55.62599 43.68428 36887 ft 500 kts 122°
2026-05-07 14:09 55.59901 43.79852 36882 ft 502 kts 104°
2026-05-07 14:10 55.59098 43.92090 36888 ft 502 kts 93°
2026-05-07 14:10 55.58844 44.04373 36893 ft 504 kts 92°
2026-05-07 14:11 55.58647 44.16776 36891 ft 505 kts 92°
2026-05-07 14:11 55.58403 44.29258 36898 ft 505 kts 92°
2026-05-07 14:12 55.58124 44.41563 36899 ft 505 kts 92°
2026-05-07 14:12 55.57823 44.53948 36904 ft 504 kts 92°
2026-05-07 14:13 55.57511 44.66311 36904 ft 503 kts 92°
2026-05-07 14:13 55.56862 44.78602 36921 ft 502 kts 103°
2026-05-07 14:14 55.54314 44.90007 36915 ft 500 kts 123°
2026-05-07 14:14 55.50663 44.97828 36917 ft 497 kts 137°
2026-05-07 14:15 55.45633 45.06183 36914 ft 497 kts 140°
2026-05-07 14:15 55.40511 45.14323 36920 ft 495 kts 140°
2026-05-07 14:16 55.35414 45.22465 36914 ft 495 kts 139°
2026-05-07 14:16 55.30341 45.30626 36923 ft 494 kts 139°
2026-05-07 14:17 55.25273 45.38776 36920 ft 494 kts 139°
2026-05-07 14:17 55.20209 45.46892 36927 ft 493 kts 139°
2026-05-07 14:18 55.15138 45.54987 36933 ft 493 kts 139°
2026-05-07 14:18 55.10065 45.63056 36937 ft 493 kts 139°
2026-05-07 14:19 55.04985 45.71103 36926 ft 493 kts 139°
2026-05-07 14:19 54.99903 45.79126 36934 ft 492 kts 139°
2026-05-07 14:20 54.94823 45.87118 36932 ft 492 kts 139°
2026-05-07 14:20 54.89738 45.95088 36939 ft 492 kts 139°
2026-05-07 14:21 54.84647 46.03041 36942 ft 492 kts 139°
2026-05-07 14:21 54.79554 46.10967 36942 ft 492 kts 139°
2026-05-07 14:22 54.74351 46.18630 36939 ft 491 kts 142°
2026-05-07 14:22 54.68964 46.25890 36936 ft 491 kts 143°
2026-05-07 14:23 54.63613 46.33085 36936 ft 491 kts 143°
2026-05-07 14:23 54.58257 46.40372 36956 ft 490 kts 142°
2026-05-07 14:24 54.52917 46.47663 36938 ft 490 kts 142°
2026-05-07 14:24 54.47578 46.54936 36936 ft 490 kts 142°
2026-05-07 14:25 54.42230 46.62189 36930 ft 489 kts 142°
2026-05-07 14:25 54.36876 46.69423 36928 ft 490 kts 142°
2026-05-07 14:26 54.31522 46.76633 36926 ft 490 kts 142°
2026-05-07 14:26 54.26415 46.84329 36945 ft 491 kts 131°
2026-05-07 14:27 54.22774 46.94136 36952 ft 491 kts 114°
2026-05-07 14:27 54.20163 47.04927 36935 ft 492 kts 111°
2026-05-07 14:28 54.17714 47.15825 36934 ft 492 kts 111°
2026-05-07 14:28 54.15241 47.26707 36951 ft 492 kts 111°
2026-05-07 14:29 54.12728 47.37547 36946 ft 491 kts 112°
2026-05-07 14:29 54.10188 47.48375 36926 ft 492 kts 112°
2026-05-07 14:30 54.07640 47.59179 36945 ft 492 kts 112°
2026-05-07 14:30 54.05086 47.69961 36948 ft 491 kts 112°
2026-05-07 14:31 54.02538 47.80668 36933 ft 491 kts 112°
2026-05-07 14:31 53.99948 47.91499 36951 ft 492 kts 112°
2026-05-07 14:32 53.97382 48.02176 36951 ft 492 kts 112°
2026-05-07 14:32 53.94786 48.12922 36930 ft 492 kts 112°
2026-05-07 14:33 53.92179 48.23661 36934 ft 492 kts 112°
2026-05-07 14:33 53.89564 48.34383 36934 ft 493 kts 113°
2026-05-07 14:34 53.86938 48.45098 36930 ft 492 kts 113°
2026-05-07 14:34 53.84306 48.55783 36941 ft 491 kts 113°
2026-05-07 14:35 53.81668 48.66442 36945 ft 491 kts 113°
2026-05-07 14:35 53.79022 48.77082 36918 ft 491 kts 113°
2026-05-07 14:36 53.76480 48.87787 36925 ft 491 kts 109°
2026-05-07 14:36 53.74328 48.98732 36908 ft 491 kts 108°
2026-05-07 14:37 53.72244 49.09685 36917 ft 489 kts 108°
2026-05-07 14:37 53.69119 49.26053 36904 ft 489 kts 108°
2026-05-07 14:38 53.67010 49.36971 36890 ft 490 kts 108°
2026-05-07 14:38 53.64903 49.47805 36895 ft 489 kts 108°
2026-05-07 14:39 53.62773 49.58689 36900 ft 489 kts 108°
2026-05-07 14:39 53.60655 49.69459 36899 ft 488 kts 108°
2026-05-07 14:40 53.58491 49.80397 36893 ft 488 kts 109°
2026-05-07 14:40 53.56338 49.91222 36909 ft 488 kts 109°
2026-05-07 14:41 53.54127 50.02014 36912 ft 488 kts 112°
2026-05-07 14:41 53.50709 50.11796 36908 ft 486 kts 130°
2026-05-07 14:42 53.45613 50.19107 36908 ft 483 kts 151°
2026-05-07 14:42 53.39384 50.23254 36873 ft 482 kts 164°
2026-05-07 14:43 53.32898 50.26205 36871 ft 483 kts 166°
2026-05-07 14:43 53.26393 50.29027 36884 ft 483 kts 166°
2026-05-07 14:44 53.19902 50.31908 36874 ft 482 kts 166°
2026-05-07 14:44 53.13429 50.34825 36875 ft 482 kts 165°
2026-05-07 14:45 53.06957 50.37747 36874 ft 482 kts 165°
2026-05-07 14:45 53.00484 50.40660 36884 ft 481 kts 165°
2026-05-07 14:46 52.94056 50.43540 36882 ft 482 kts 165°
2026-05-07 14:46 52.87579 50.46432 36876 ft 482 kts 165°
2026-05-07 14:47 52.81096 50.49318 36874 ft 483 kts 165°
2026-05-07 14:47 52.74619 50.52201 36869 ft 482 kts 165°
2026-05-07 14:48 52.68152 50.55061 36888 ft 481 kts 165°
2026-05-07 14:48 52.61704 50.57907 36873 ft 479 kts 165°
2026-05-07 14:49 52.55260 50.60734 36876 ft 479 kts 165°
2026-05-07 14:49 52.48806 50.63565 36869 ft 480 kts 165°
2026-05-07 14:50 52.42344 50.66381 36870 ft 481 kts 165°
2026-05-07 14:50 52.35873 50.69193 36870 ft 482 kts 165°
2026-05-07 14:51 52.29396 50.72001 36876 ft 481 kts 165°
2026-05-07 14:51 52.22924 50.74800 36869 ft 481 kts 165°
2026-05-07 14:52 52.16514 50.77564 36879 ft 478 kts 165°
2026-05-07 14:52 52.10080 50.80331 36873 ft 479 kts 165°
2026-05-07 14:53 52.03629 50.83096 36881 ft 479 kts 165°
2026-05-07 14:53 51.97182 50.85852 36887 ft 480 kts 165°
2026-05-07 14:54 51.90706 50.88628 36882 ft 482 kts 165°
2026-05-07 14:54 51.84235 50.91417 36877 ft 481 kts 165°
2026-05-07 14:55 51.77753 50.94203 36887 ft 481 kts 165°
2026-05-07 14:55 51.71282 50.96979 36883 ft 481 kts 165°
2026-05-07 14:56 51.65120 51.01147 36889 ft 483 kts 148°
2026-05-07 14:56 51.59424 51.06904 36890 ft 484 kts 146°
2026-05-07 14:57 51.53813 51.12913 36891 ft 484 kts 145°
2026-05-07 14:57 51.48205 51.18910 36893 ft 484 kts 146°
2026-05-07 14:58 51.42575 51.24877 36887 ft 486 kts 146°
2026-05-07 14:58 51.36944 51.30899 36892 ft 487 kts 146°
2026-05-07 14:59 51.31318 51.36919 36884 ft 486 kts 146°
2026-05-07 14:59 51.25691 51.42911 36888 ft 487 kts 146°
2026-05-07 15:00 51.20075 51.48860 36880 ft 488 kts 146°
2026-05-07 15:00 51.13903 51.53483 36889 ft 489 kts 163°
2026-05-07 15:01 51.10572 51.54561 36889 ft 489 kts 174°
2026-05-07 15:01 51.07224 51.55028 36883 ft 490 kts 176°
2026-05-07 15:01 51.00402 51.55504 36887 ft 492 kts 178°
2026-05-07 15:02 50.93552 51.55847 36882 ft 493 kts 178°
2026-05-07 15:02 50.86695 51.56243 36881 ft 493 kts 177°
2026-05-07 15:03 50.79831 51.56685 36880 ft 493 kts 177°
2026-05-07 15:03 50.72979 51.57138 36880 ft 493 kts 177°
2026-05-07 15:04 50.67274 51.57514 36878 ft 494 kts 177°
2026-05-07 15:04 50.60358 51.57966 36875 ft 494 kts 177°
2026-05-07 15:05 50.53529 51.58410 36875 ft 494 kts 177°
2026-05-07 15:05 50.46657 51.58856 36886 ft 494 kts 177°
2026-05-07 15:06 50.39784 51.59305 36869 ft 495 kts 177°
2026-05-07 15:06 50.32905 51.59778 36872 ft 495 kts 177°
2026-05-07 15:07 50.26017 51.60255 36870 ft 495 kts 177°
2026-05-07 15:07 50.19130 51.60728 36871 ft 495 kts 177°
2026-05-07 15:08 50.12245 51.61198 36867 ft 496 kts 177°
2026-05-07 15:08 50.05341 51.61667 36859 ft 496 kts 177°
2026-05-07 15:09 49.98434 51.62135 36864 ft 497 kts 177°
2026-05-07 15:09 49.91508 51.62602 36862 ft 499 kts 177°
2026-05-07 15:10 49.84570 51.63071 36858 ft 498 kts 177°
2026-05-07 15:10 49.77642 51.63536 36859 ft 497 kts 177°
2026-05-07 15:11 49.70720 51.63999 36860 ft 499 kts 177°
2026-05-07 15:11 49.63773 51.64463 36865 ft 501 kts 178°
2026-05-07 15:12 49.56810 51.64926 36855 ft 500 kts 178°
2026-05-07 15:12 49.49859 51.65389 36855 ft 500 kts 178°
2026-05-07 15:13 49.42900 51.65849 36851 ft 500 kts 178°
2026-05-07 15:13 49.35971 51.66306 36849 ft 497 kts 178°
2026-05-07 15:14 49.29051 51.66765 36842 ft 499 kts 178°
2026-05-07 15:14 49.22120 51.67217 36845 ft 498 kts 178°
2026-05-07 15:15 49.15196 51.67673 36845 ft 499 kts 178°
2026-05-07 15:15 49.08242 51.68128 36844 ft 501 kts 178°
2026-05-07 15:16 49.01273 51.68581 36837 ft 501 kts 178°
2026-05-07 15:16 48.94310 51.69032 36834 ft 501 kts 178°
2026-05-07 15:17 48.87349 51.69479 36834 ft 500 kts 178°
2026-05-07 15:17 48.80448 51.69920 36831 ft 499 kts 178°
2026-05-07 15:18 48.73533 51.70364 36826 ft 496 kts 178°
2026-05-07 15:18 48.66643 51.70809 36827 ft 496 kts 179°
2026-05-07 15:19 48.59751 51.71249 36821 ft 496 kts 179°
2026-05-07 15:19 48.52847 51.71687 36817 ft 496 kts 179°
2026-05-07 15:20 48.45966 51.72123 36819 ft 494 kts 179°
2026-05-07 15:20 48.39104 51.72555 36812 ft 493 kts 179°
2026-05-07 15:21 48.32249 51.72989 36807 ft 493 kts 179°
2026-05-07 15:21 48.25394 51.73421 36806 ft 493 kts 179°
2026-05-07 15:22 48.18555 51.73851 36807 ft 491 kts 179°
2026-05-07 15:22 48.11725 51.74278 36803 ft 491 kts 179°
2026-05-07 15:23 48.04894 51.74704 36804 ft 491 kts 179°
2026-05-07 15:23 47.98063 51.75129 36797 ft 491 kts 179°
2026-05-07 15:24 47.91244 51.75553 36801 ft 490 kts 179°
2026-05-07 15:24 47.84471 51.75973 36802 ft 490 kts 179°
2026-05-07 15:25 47.77661 51.76386 36802 ft 490 kts 179°
2026-05-07 15:25 47.70849 51.76793 36798 ft 489 kts 179°
2026-05-07 15:26 47.64054 51.77199 36796 ft 489 kts 179°
2026-05-07 15:26 47.57255 51.77606 36801 ft 489 kts 179°
2026-05-07 15:27 47.50456 51.78012 36793 ft 489 kts 179°
2026-05-07 15:27 47.43664 51.78417 36796 ft 488 kts 179°
2026-05-07 15:28 47.36871 51.78821 36802 ft 488 kts 179°
2026-05-07 15:28 47.30081 51.79223 36802 ft 488 kts 179°
2026-05-07 15:29 47.23290 51.79625 36799 ft 488 kts 179°
2026-05-07 15:29 47.16500 51.80005 36796 ft 488 kts 181°
2026-05-07 15:30 47.09767 51.79138 36809 ft 486 kts 189°
2026-05-07 15:30 47.03084 51.77692 36804 ft 485 kts 190°
2026-05-07 15:31 46.96412 51.76159 36808 ft 485 kts 190°
2026-05-07 15:31 46.89748 51.74647 36805 ft 484 kts 190°
2026-05-07 15:32 46.83100 51.73163 36805 ft 483 kts 190°
2026-05-07 15:32 46.76454 51.71691 36813 ft 483 kts 190°
2026-05-07 15:33 46.69803 51.70222 36831 ft 483 kts 190°
2026-05-07 15:33 46.63160 51.68759 36822 ft 482 kts 190°
2026-05-07 15:34 46.56533 51.67301 36834 ft 481 kts 190°
2026-05-07 15:34 46.49919 51.65850 36836 ft 481 kts 190°
2026-05-07 15:35 46.43303 51.64402 36835 ft 481 kts 190°
2026-05-07 15:35 46.36732 51.62961 36838 ft 480 kts 191°
2026-05-07 15:36 46.30140 51.61507 36842 ft 479 kts 190°
2026-05-07 15:36 46.23568 51.60061 36853 ft 476 kts 191°
2026-05-07 15:37 46.17018 51.58627 36860 ft 476 kts 190°
2026-05-07 15:37 46.10461 51.57196 36854 ft 476 kts 190°
2026-05-07 15:38 46.03915 51.55770 36868 ft 475 kts 190°
2026-05-07 15:38 45.97366 51.54347 36867 ft 476 kts 190°
2026-05-07 15:39 45.90826 51.52930 36877 ft 476 kts 190°
2026-05-07 15:39 45.84288 51.51518 36868 ft 474 kts 191°
2026-05-07 15:40 45.77775 51.50111 36883 ft 473 kts 191°
2026-05-07 15:40 45.71257 51.48710 36891 ft 473 kts 191°
2026-05-07 15:41 45.64736 51.47313 36892 ft 474 kts 191°
2026-05-07 15:41 45.58211 51.45917 36898 ft 474 kts 191°
2026-05-07 15:42 45.51697 51.44525 36910 ft 473 kts 191°
2026-05-07 15:42 45.45190 51.43137 36912 ft 472 kts 191°
2026-05-07 15:43 45.38737 51.41764 36915 ft 472 kts 191°
2026-05-07 15:43 45.32231 51.40384 36919 ft 473 kts 191°
2026-05-07 15:44 45.25731 51.39010 36921 ft 472 kts 191°
2026-05-07 15:44 45.19238 51.37641 36932 ft 471 kts 191°
2026-05-07 15:45 45.12744 51.36273 36937 ft 472 kts 191°
2026-05-07 15:45 45.06251 51.34909 36940 ft 472 kts 191°
2026-05-07 15:46 44.96520 51.32872 36947 ft 471 kts 191°
2026-05-07 15:47 44.90045 51.31519 36952 ft 470 kts 191°
2026-05-07 15:47 44.83566 51.30169 36952 ft 471 kts 191°
2026-05-07 15:48 44.77095 51.28786 36958 ft 470 kts 192°
2026-05-07 15:48 44.70669 51.27166 36963 ft 468 kts 193°
2026-05-07 15:49 44.64271 51.25500 36966 ft 467 kts 193°
2026-05-07 15:49 44.57877 51.23872 36974 ft 467 kts 193°
2026-05-07 15:50 44.51480 51.22272 36978 ft 467 kts 193°
2026-05-07 15:50 44.46168 51.20952 36985 ft 467 kts 193°
2026-05-07 15:51 44.39771 51.19365 37006 ft 467 kts 193°
2026-05-07 15:51 44.33369 51.17778 36996 ft 468 kts 193°
2026-05-07 15:52 44.26953 51.16191 36999 ft 468 kts 193°
2026-05-07 15:52 44.20550 51.14611 37000 ft 467 kts 193°
2026-05-07 15:53 44.14166 51.13040 37015 ft 465 kts 193°
2026-05-07 15:53 44.07802 51.11476 37017 ft 464 kts 193°
2026-05-07 15:54 44.01444 51.09917 37018 ft 464 kts 193°
2026-05-07 15:54 43.95090 51.08363 37025 ft 464 kts 193°
2026-05-07 15:55 43.88729 51.06858 37026 ft 465 kts 191°
2026-05-07 15:55 43.82235 51.06515 37019 ft 468 kts 184°
2026-05-07 15:56 43.75707 51.06621 37018 ft 469 kts 183°
2026-05-07 15:56 43.69181 51.06797 37025 ft 469 kts 183°
2026-05-07 15:57 43.62662 51.06957 37027 ft 468 kts 183°
2026-05-07 15:57 43.56144 51.07099 37036 ft 468 kts 183°
2026-05-07 15:58 43.49675 51.07233 37045 ft 468 kts 183°
2026-05-07 15:58 43.43380 51.07364 37042 ft 467 kts 184°
2026-05-07 15:59 43.36893 51.07499 37043 ft 466 kts 184°
2026-05-07 15:59 43.30414 51.07633 37052 ft 466 kts 184°
2026-05-07 16:00 43.23941 51.07768 37050 ft 464 kts 184°
2026-05-07 16:00 43.17498 51.07903 37060 ft 462 kts 184°
2026-05-07 16:01 43.11072 51.08035 37059 ft 462 kts 184°
2026-05-07 16:01 43.04646 51.08166 37062 ft 462 kts 184°
2026-05-07 16:02 42.98222 51.08299 37064 ft 461 kts 184°
2026-05-07 16:02 42.91818 51.08431 37067 ft 460 kts 184°
2026-05-07 16:03 42.85422 51.08562 37072 ft 460 kts 184°
2026-05-07 16:03 42.79025 51.08603 37063 ft 459 kts 186°
2026-05-07 16:04 42.72669 51.08466 37080 ft 456 kts 186°
2026-05-07 16:04 42.66308 51.08323 37076 ft 457 kts 186°
2026-05-07 16:05 42.59956 51.08210 37078 ft 457 kts 186°
2026-05-07 16:05 42.53596 51.08114 37079 ft 456 kts 186°
2026-05-07 16:06 42.47261 51.08021 37082 ft 455 kts 186°
2026-05-07 16:06 42.40931 51.07927 37081 ft 455 kts 186°
2026-05-07 16:07 42.34599 51.07831 37071 ft 455 kts 186°
2026-05-07 16:07 42.28285 51.07738 37089 ft 453 kts 186°
2026-05-07 16:08 42.21981 51.07643 37090 ft 453 kts 186°
2026-05-07 16:08 42.15673 51.07547 37089 ft 453 kts 187°
2026-05-07 16:09 42.09380 51.07432 37086 ft 452 kts 187°
2026-05-07 16:09 42.03082 51.07310 37089 ft 452 kts 187°
2026-05-07 16:10 41.96791 51.07191 37089 ft 452 kts 187°
2026-05-07 16:10 41.90495 51.07075 37078 ft 452 kts 187°
2026-05-07 16:11 41.84208 51.06961 37090 ft 451 kts 187°
2026-05-07 16:11 41.77933 51.06846 37095 ft 451 kts 187°
2026-05-07 16:12 41.71652 51.06731 37096 ft 451 kts 187°
2026-05-07 16:12 41.65418 51.06618 37094 ft 451 kts 187°
2026-05-07 16:13 41.59151 51.06505 37099 ft 450 kts 187°
2026-05-07 16:13 41.52889 51.06412 37100 ft 450 kts 187°
2026-05-07 16:14 41.46624 51.06325 37081 ft 450 kts 187°
2026-05-07 16:14 41.40375 51.06238 37099 ft 449 kts 187°
2026-05-07 16:15 41.34128 51.06150 37100 ft 448 kts 187°
2026-05-07 16:15 41.27898 51.06062 37105 ft 448 kts 187°
2026-05-07 16:16 41.21666 51.05976 37102 ft 448 kts 188°
2026-05-07 16:16 41.15441 51.05888 37105 ft 447 kts 188°
2026-05-07 16:17 41.09217 51.05800 37101 ft 447 kts 188°
2026-05-07 16:17 41.02998 51.05713 37100 ft 447 kts 188°
2026-05-07 16:18 40.96819 51.05626 37108 ft 447 kts 188°
2026-05-07 16:18 40.90596 51.05539 37108 ft 447 kts 188°
2026-05-07 16:19 40.84373 51.05452 37114 ft 447 kts 188°
2026-05-07 16:19 40.78152 51.05367 37110 ft 447 kts 188°
2026-05-07 16:20 40.71937 51.05281 37110 ft 447 kts 188°
2026-05-07 16:20 40.65718 51.05195 37108 ft 447 kts 188°
2026-05-07 16:21 40.59501 51.05109 37115 ft 447 kts 188°
2026-05-07 16:21 40.53291 51.05025 37110 ft 446 kts 188°
2026-05-07 16:22 40.47090 51.04940 37112 ft 445 kts 188°
2026-05-07 16:22 40.40896 51.04855 37086 ft 445 kts 188°
2026-05-07 16:23 40.34695 51.04769 37111 ft 446 kts 188°
2026-05-07 16:23 40.28494 51.04684 37108 ft 446 kts 188°
2026-05-07 16:24 40.22295 51.04600 37110 ft 445 kts 188°
2026-05-07 16:24 40.16093 51.04515 37112 ft 446 kts 188°
2026-05-07 16:25 40.09892 51.04431 37113 ft 446 kts 188°
2026-05-07 16:25 40.03691 51.04348 37108 ft 445 kts 188°
2026-05-07 16:26 39.97497 51.04264 37107 ft 445 kts 188°
2026-05-07 16:26 39.91307 51.04180 37105 ft 445 kts 188°
2026-05-07 16:27 39.85116 51.04096 37106 ft 445 kts 188°
2026-05-07 16:27 39.78929 51.04013 37087 ft 444 kts 188°
2026-05-07 16:28 39.72763 51.03932 37105 ft 442 kts 188°
2026-05-07 16:28 39.66621 51.03850 37108 ft 441 kts 188°
2026-05-07 16:29 39.60517 51.03767 37108 ft 441 kts 188°
2026-05-07 16:29 39.54383 51.03685 37113 ft 440 kts 188°
2026-05-07 16:30 39.48255 51.03603 37111 ft 440 kts 188°
2026-05-07 16:30 39.42135 51.03521 37115 ft 440 kts 188°
2026-05-07 16:31 39.36018 51.03440 37104 ft 439 kts 188°
2026-05-07 16:31 39.29913 51.03360 37105 ft 438 kts 188°
2026-05-07 16:32 39.23827 51.03279 37109 ft 438 kts 188°
2026-05-07 16:32 39.17741 51.03198 37096 ft 437 kts 189°
2026-05-07 16:33 39.11664 51.03118 37109 ft 436 kts 189°
2026-05-07 16:33 39.05607 51.03038 37107 ft 435 kts 189°
2026-05-07 16:34 38.99551 51.02958 37083 ft 435 kts 189°
2026-05-07 16:34 38.93507 51.02879 37107 ft 434 kts 189°
2026-05-07 16:35 38.87468 51.02799 37105 ft 434 kts 189°
2026-05-07 16:35 38.81436 51.02720 37105 ft 434 kts 189°
2026-05-07 16:36 38.75441 51.02641 37109 ft 433 kts 189°
2026-05-07 16:36 38.69413 51.02563 37112 ft 433 kts 189°
2026-05-07 16:37 38.63378 51.02484 37101 ft 433 kts 189°
2026-05-07 16:37 38.57343 51.02405 37102 ft 435 kts 189°
2026-05-07 16:38 38.51294 51.02326 37106 ft 435 kts 189°
2026-05-07 16:38 38.46225 51.02261 37105 ft 435 kts 189°
2026-05-07 16:39 38.40176 51.02183 37095 ft 435 kts 189°
2026-05-07 16:39 38.34154 51.02105 37108 ft 436 kts 189°
2026-05-07 16:40 38.28051 51.02026 37110 ft 436 kts 189°
2026-05-07 16:40 38.21986 51.01949 37096 ft 436 kts 189°
2026-05-07 16:41 38.15966 51.01871 37106 ft 435 kts 189°
2026-05-07 16:41 38.09910 51.01794 37105 ft 435 kts 189°
2026-05-07 16:42 38.03853 51.01716 37103 ft 435 kts 189°
2026-05-07 16:42 37.97740 51.02496 37105 ft 450 kts 176°
2026-05-07 16:43 37.91631 51.04410 37104 ft 454 kts 174°
2026-05-07 16:43 37.85528 51.06523 37095 ft 455 kts 174°
2026-05-07 16:44 37.79431 51.08634 37100 ft 454 kts 174°
2026-05-07 16:44 37.73334 51.10711 37099 ft 454 kts 175°
2026-05-07 16:45 37.67238 51.12773 37101 ft 454 kts 175°
2026-05-07 16:45 37.61139 51.14831 37100 ft 454 kts 175°
2026-05-07 16:46 37.55040 51.16886 37099 ft 454 kts 175°
2026-05-07 16:46 37.48936 51.18939 37092 ft 454 kts 175°
2026-05-07 16:47 37.42824 51.20992 37104 ft 455 kts 175°
2026-05-07 16:47 37.36711 51.23044 37075 ft 455 kts 175°
2026-05-07 16:48 37.30629 51.25080 37099 ft 456 kts 175°
2026-05-07 16:48 37.24496 51.27131 37102 ft 456 kts 175°
2026-05-07 16:49 37.18368 51.29177 37099 ft 456 kts 175°
2026-05-07 16:49 37.12241 51.31219 37099 ft 456 kts 175°
2026-05-07 16:50 37.06110 51.33258 37103 ft 456 kts 175°
2026-05-07 16:50 36.99976 51.35294 37098 ft 457 kts 175°
2026-05-07 16:51 36.93828 51.37332 37094 ft 457 kts 175°
2026-05-07 16:51 36.87676 51.39369 37066 ft 457 kts 175°
2026-05-07 16:52 36.81517 51.41404 37084 ft 458 kts 175°
2026-05-07 16:52 36.75356 51.43436 37078 ft 458 kts 175°
2026-05-07 16:53 36.69190 51.45468 37056 ft 458 kts 175°
2026-05-07 16:53 36.63023 51.47564 37075 ft 462 kts 173°
2026-05-07 16:54 36.56882 51.50051 37074 ft 465 kts 172°
2026-05-07 16:54 36.50750 51.52605 37109 ft 465 kts 172°
2026-05-07 16:55 36.44606 51.55093 37115 ft 465 kts 173°
2026-05-07 16:55 36.38450 51.57547 37084 ft 465 kts 173°
2026-05-07 16:56 36.32322 51.59990 37109 ft 466 kts 172°
2026-05-07 16:56 36.23181 51.63627 37112 ft 467 kts 172°
2026-05-07 16:57 36.16994 51.66081 37117 ft 467 kts 172°
2026-05-07 16:57 36.10794 51.68534 37114 ft 468 kts 172°
2026-05-07 16:58 36.04637 51.70959 37152 ft 460 kts 172°
2026-05-07 16:58 35.98492 51.73383 37100 ft 465 kts 173°
2026-05-07 16:59 35.92343 51.75800 37096 ft 462 kts 173°
2026-05-07 16:59 35.86187 51.78003 37096 ft 459 kts 175°
2026-05-07 17:00 35.80038 51.80068 37080 ft 456 kts 175°
2026-05-07 17:00 35.73920 51.82141 37072 ft 458 kts 174°
2026-05-07 17:01 35.67755 51.84254 37053 ft 461 kts 174°
2026-05-07 17:01 35.61586 51.86391 37019 ft 459 kts 174°
2026-05-07 17:02 35.55439 51.88524 37007 ft 458 kts 174°
2026-05-07 17:02 35.49298 51.90633 36997 ft 458 kts 175°
2026-05-07 17:03 35.43170 51.92734 36984 ft 457 kts 175°
2026-05-07 17:03 35.37044 51.94831 36978 ft 457 kts 175°
2026-05-07 17:04 35.30922 51.96925 36960 ft 457 kts 175°
2026-05-07 17:04 35.24787 51.99019 36959 ft 458 kts 175°
2026-05-07 17:05 35.18636 52.01120 36951 ft 459 kts 175°
2026-05-07 17:05 35.12532 52.03200 36943 ft 459 kts 175°
2026-05-07 17:06 35.06378 52.05291 36935 ft 459 kts 175°
2026-05-07 17:06 35.00210 52.07367 36944 ft 460 kts 175°
2026-05-07 17:07 34.94011 52.09224 36942 ft 458 kts 177°
2026-05-07 17:07 34.87815 52.11004 36939 ft 458 kts 177°
2026-05-07 17:08 34.81620 52.12816 36943 ft 459 kts 176°
2026-05-07 17:08 34.78547 52.14011 36916 ft 470 kts 168°
2026-05-07 17:08 34.75561 52.15766 36946 ft 485 kts 159°
2026-05-07 17:09 34.72758 52.18147 36953 ft 499 kts 150°
2026-05-07 17:09 34.70088 52.20885 36943 ft 504 kts 148°
2026-05-07 17:09 34.64891 52.26644 36950 ft 507 kts 147°
2026-05-07 17:10 34.59721 52.32471 36946 ft 506 kts 147°
2026-05-07 17:10 34.54532 52.38237 36940 ft 505 kts 147°
2026-05-07 17:11 34.49325 52.43961 36926 ft 505 kts 147°
2026-05-07 17:11 34.44105 52.49675 36929 ft 506 kts 147°
2026-05-07 17:12 34.38874 52.55392 36942 ft 506 kts 147°
2026-05-07 17:12 34.33643 52.61105 36927 ft 506 kts 147°
2026-05-07 17:13 34.28412 52.66809 36948 ft 506 kts 147°
2026-05-07 17:13 34.23187 52.72496 36937 ft 506 kts 147°
2026-05-07 17:14 34.17993 52.78138 36915 ft 505 kts 147°
2026-05-07 17:14 34.12756 52.83817 36952 ft 506 kts 147°
2026-05-07 17:15 34.07519 52.89487 36936 ft 506 kts 147°
2026-05-07 17:15 34.02279 52.95149 36941 ft 506 kts 147°
2026-05-07 17:16 33.97046 53.00795 36939 ft 505 kts 147°
2026-05-07 17:16 33.91803 53.06441 36941 ft 506 kts 147°
2026-05-07 17:17 33.86560 53.12078 36941 ft 505 kts 147°
2026-05-07 17:17 33.81318 53.17706 36942 ft 505 kts 147°
2026-05-07 17:18 33.76076 53.23321 36949 ft 504 kts 147°
2026-05-07 17:18 33.70836 53.28925 36934 ft 505 kts 147°
2026-05-07 17:19 33.65585 53.34532 36950 ft 505 kts 147°
2026-05-07 17:19 33.60333 53.40130 36944 ft 505 kts 147°
2026-05-07 17:20 33.55080 53.45722 36943 ft 506 kts 147°
2026-05-07 17:20 33.49806 53.51311 36943 ft 506 kts 147°
2026-05-07 17:21 33.44527 53.56873 36924 ft 506 kts 147°
2026-05-07 17:21 33.39272 53.62501 36935 ft 511 kts 143°
2026-05-07 17:22 33.34762 53.69132 36935 ft 521 kts 134°
2026-05-07 17:22 33.30535 53.76182 36918 ft 523 kts 132°
2026-05-07 17:23 33.26349 53.83292 36913 ft 523 kts 132°
2026-05-07 17:23 33.21931 53.90113 36913 ft 511 kts 143°
2026-05-07 17:24 33.19280 53.92858 36907 ft 499 kts 153°
2026-05-07 17:24 33.16355 53.94973 36900 ft 485 kts 163°
2026-05-07 17:24 33.13260 53.96409 36896 ft 472 kts 173°
2026-05-07 17:24 33.10091 53.97386 36895 ft 468 kts 176°
2026-05-07 17:25 33.03730 53.98992 36888 ft 467 kts 177°
2026-05-07 17:25 32.97357 54.00502 36888 ft 468 kts 177°
2026-05-07 17:26 32.90967 54.02059 36867 ft 469 kts 177°
2026-05-07 17:26 32.85611 54.03393 36883 ft 469 kts 176°
2026-05-07 17:27 32.79224 54.05058 36877 ft 470 kts 176°
2026-05-07 17:27 32.72841 54.06773 36873 ft 470 kts 176°
2026-05-07 17:28 32.66460 54.08480 36874 ft 470 kts 176°
2026-05-07 17:28 32.60118 54.10162 36881 ft 470 kts 176°
2026-05-07 17:29 32.53737 54.11847 36878 ft 470 kts 176°
2026-05-07 17:29 32.47358 54.13530 36878 ft 469 kts 176°
2026-05-07 17:30 32.41002 54.15205 36907 ft 468 kts 176°
2026-05-07 17:30 32.34653 54.16870 36912 ft 467 kts 177°
2026-05-07 17:31 32.28300 54.18486 36902 ft 467 kts 177°
2026-05-07 17:31 32.21937 54.20095 36933 ft 468 kts 177°
2026-05-07 17:32 32.15567 54.21713 36976 ft 468 kts 177°
2026-05-07 17:32 32.09199 54.23334 37004 ft 468 kts 177°
2026-05-07 17:33 32.02817 54.24956 37054 ft 469 kts 177°
2026-05-07 17:33 31.96432 54.26576 37076 ft 470 kts 177°
2026-05-07 17:34 31.90066 54.28445 37053 ft 479 kts 169°
2026-05-07 17:34 31.83896 54.31731 37075 ft 491 kts 163°
2026-05-07 17:35 31.77800 54.35403 37055 ft 493 kts 162°
2026-05-07 17:35 31.71721 54.39126 36976 ft 493 kts 162°
2026-05-07 17:36 31.65616 54.42828 37000 ft 495 kts 162°
2026-05-07 17:36 31.59484 54.46514 36990 ft 495 kts 162°
2026-05-07 17:37 31.53392 54.50171 37004 ft 495 kts 162°
2026-05-07 17:37 31.47251 54.53848 37020 ft 497 kts 162°
2026-05-07 17:38 31.41092 54.57541 37003 ft 498 kts 162°
2026-05-07 17:38 31.34927 54.61235 37011 ft 498 kts 162°
2026-05-07 17:39 31.28761 54.64921 37018 ft 498 kts 162°
2026-05-07 17:39 31.22585 54.68607 37013 ft 498 kts 162°
2026-05-07 17:40 31.16409 54.72290 37020 ft 498 kts 162°
2026-05-07 17:40 31.10227 54.75970 37019 ft 498 kts 162°
2026-05-07 17:41 31.04042 54.79645 37022 ft 499 kts 162°
2026-05-07 17:41 30.97850 54.83324 37023 ft 499 kts 162°
2026-05-07 17:42 30.91659 54.86995 37028 ft 499 kts 162°
2026-05-07 17:42 30.85472 54.90655 37049 ft 499 kts 162°
2026-05-07 17:43 30.79288 54.94309 37048 ft 498 kts 162°
2026-05-07 17:43 30.73108 54.97958 37057 ft 498 kts 162°
2026-05-07 17:44 30.66957 55.01566 37070 ft 498 kts 162°
2026-05-07 17:44 30.60719 55.05212 37096 ft 499 kts 162°
2026-05-07 17:45 30.54552 55.08816 37096 ft 500 kts 162°
2026-05-07 17:45 30.48338 55.12445 37103 ft 500 kts 162°
2026-05-07 17:46 30.42118 55.16073 37111 ft 500 kts 162°
2026-05-07 17:46 30.35899 55.19696 37119 ft 501 kts 162°
2026-05-07 17:47 30.29682 55.23312 37120 ft 499 kts 162°
2026-05-07 17:47 30.23477 55.26917 37117 ft 499 kts 162°
2026-05-07 17:48 30.17255 55.30522 37127 ft 501 kts 162°
2026-05-07 17:48 30.11012 55.34136 37124 ft 502 kts 162°
2026-05-07 17:49 30.04770 55.37748 37131 ft 502 kts 162°
2026-05-07 17:49 29.98527 55.41359 37128 ft 502 kts 162°
2026-05-07 17:50 29.92289 55.44959 37128 ft 501 kts 162°
2026-05-07 17:50 29.86053 55.48554 37134 ft 501 kts 162°
2026-05-07 17:51 29.79822 55.52141 37137 ft 501 kts 162°
2026-05-07 17:51 29.73584 55.55724 37121 ft 502 kts 162°
2026-05-07 17:52 29.67335 55.59312 37143 ft 502 kts 162°
2026-05-07 17:52 29.61088 55.62894 37134 ft 501 kts 162°
2026-05-07 17:53 29.54850 55.66468 37097 ft 501 kts 162°
2026-05-07 17:53 29.48743 55.70436 37111 ft 506 kts 156°
2026-05-07 17:54 29.42745 55.74673 37094 ft 506 kts 156°
2026-05-07 17:54 29.36727 55.78867 37101 ft 505 kts 157°
2026-05-07 17:55 29.30683 55.82992 37086 ft 506 kts 157°
2026-05-07 17:55 29.24624 55.87094 37082 ft 506 kts 157°
2026-05-07 17:56 29.18606 55.91162 37081 ft 506 kts 157°
2026-05-07 17:56 29.12546 55.95255 37079 ft 505 kts 157°
2026-05-07 17:57 29.07474 55.98678 37073 ft 505 kts 157°
2026-05-07 17:57 29.00434 56.03422 37081 ft 505 kts 157°
2026-05-07 17:58 28.94377 56.07499 37055 ft 505 kts 157°
2026-05-07 17:58 28.88326 56.11568 37085 ft 504 kts 157°
2026-05-07 17:59 28.82278 56.15625 37075 ft 504 kts 157°
2026-05-07 17:59 28.76218 56.19619 37055 ft 502 kts 159°
2026-05-07 18:00 28.70075 56.23376 37028 ft 500 kts 159°
2026-05-07 18:00 28.63933 56.27092 37029 ft 499 kts 159°
2026-05-07 18:01 28.57810 56.30830 37003 ft 500 kts 159°
2026-05-07 18:01 28.51693 56.34586 36979 ft 500 kts 159°
2026-05-07 18:02 28.42524 56.40215 36962 ft 499 kts 159°
2026-05-07 18:03 28.36413 56.43958 36963 ft 499 kts 159°
2026-05-07 18:03 28.30301 56.47697 36958 ft 499 kts 158°
2026-05-07 18:04 28.24184 56.51398 36946 ft 496 kts 161°
2026-05-07 18:04 28.17749 56.53666 36949 ft 476 kts 180°
2026-05-07 18:04 28.14485 56.53853 36949 ft 465 kts 189°
2026-05-07 18:05 28.11287 56.53504 36952 ft 460 kts 194°
2026-05-07 18:05 28.04965 56.52394 36935 ft 460 kts 196°
2026-05-07 18:06 27.98659 56.51160 36930 ft 460 kts 196°
2026-05-07 18:06 27.92352 56.49956 36926 ft 460 kts 196°
2026-05-07 18:07 27.86028 56.48785 36915 ft 460 kts 195°
2026-05-07 18:07 27.79708 56.47625 36916 ft 461 kts 195°
2026-05-07 18:08 27.73379 56.46466 36897 ft 461 kts 195°
2026-05-07 18:08 27.67049 56.45308 36870 ft 460 kts 195°
2026-05-07 18:09 27.60727 56.44154 36873 ft 460 kts 195°
2026-05-07 18:09 27.54411 56.42998 36840 ft 461 kts 195°
2026-05-07 18:10 27.48110 56.41846 36841 ft 462 kts 195°
2026-05-07 18:10 27.41762 56.40688 36818 ft 462 kts 195°
2026-05-07 18:11 27.35414 56.39533 36798 ft 462 kts 195°
2026-05-07 18:11 27.29067 56.38378 36794 ft 462 kts 195°
2026-05-07 18:12 27.22714 56.37221 36789 ft 462 kts 195°
2026-05-07 18:12 27.16615 56.35237 36787 ft 453 kts 206°
2026-05-07 18:13 27.11758 56.33070 36657 ft 450 kts 207°
2026-05-07 18:13 27.08838 56.31695 36416 ft 460 kts 208°
2026-05-07 18:13 27.05867 56.30280 36162 ft 467 kts 208°
2026-05-07 18:13 27.02873 56.28861 35902 ft 469 kts 208°
2026-05-07 18:14 26.99855 56.27441 35656 ft 470 kts 207°
2026-05-07 18:14 26.96839 56.26034 35418 ft 468 kts 207°
2026-05-07 18:14 26.93845 56.24645 35043 ft 463 kts 207°
2026-05-07 18:14 26.90883 56.23276 34574 ft 458 kts 207°
2026-05-07 18:15 26.87951 56.21921 34083 ft 455 kts 207°
2026-05-07 18:15 26.85039 56.20574 33557 ft 451 kts 207°
2026-05-07 18:15 26.82148 56.19236 33031 ft 447 kts 207°
2026-05-07 18:15 26.79284 56.17910 32521 ft 443 kts 207°
2026-05-07 18:16 26.76448 56.16598 32044 ft 439 kts 207°
2026-05-07 18:16 26.73598 56.15376 31529 ft 439 kts 202°
2026-05-07 18:16 26.70671 56.14410 31013 ft 438 kts 201°
2026-05-07 18:16 26.67742 56.13508 30506 ft 435 kts 200°
2026-05-07 18:17 26.64825 56.12645 30021 ft 433 kts 200°
2026-05-07 18:17 26.61919 56.11801 29477 ft 430 kts 199°
2026-05-07 18:17 26.59034 56.10967 28979 ft 426 kts 199°
2026-05-07 18:17 26.56180 56.10143 28491 ft 422 kts 199°
2026-05-07 18:18 26.53357 56.09324 28009 ft 418 kts 199°
2026-05-07 18:18 26.50557 56.08509 27535 ft 414 kts 199°
2026-05-07 18:18 26.47778 56.07697 27044 ft 411 kts 198°
2026-05-07 18:18 26.45024 56.06892 26584 ft 408 kts 198°
2026-05-07 18:19 26.42289 56.06093 26108 ft 405 kts 198°
2026-05-07 18:19 26.39570 56.05298 25627 ft 403 kts 198°
2026-05-07 18:19 26.36864 56.04508 25150 ft 401 kts 197°
2026-05-07 18:19 26.34170 56.03722 24675 ft 400 kts 197°
2026-05-07 18:20 26.31484 56.02939 24192 ft 398 kts 197°
2026-05-07 18:20 26.28805 56.02160 23703 ft 397 kts 197°
2026-05-07 18:20 26.26087 56.01560 23151 ft 398 kts 191°
2026-05-07 18:20 26.23357 56.01099 22621 ft 396 kts 190°
2026-05-07 18:21 26.20637 56.00688 22136 ft 393 kts 189°
2026-05-07 18:21 26.17965 56.00311 21651 ft 391 kts 188°
2026-05-07 18:21 26.15275 55.99944 21166 ft 388 kts 188°
2026-05-07 18:21 26.12599 55.99579 20669 ft 386 kts 188°
2026-05-07 18:22 26.09942 55.99211 20205 ft 385 kts 187°
2026-05-07 18:22 26.08149 55.98962 19875 ft 383 kts 188°
2026-05-07 18:22 26.04659 55.98472 19230 ft 380 kts 187°
2026-05-07 18:22 26.02041 55.98103 18745 ft 378 kts 187°
2026-05-07 18:23 25.99437 55.97724 18285 ft 377 kts 188°
2026-05-07 18:23 25.96916 55.96963 17746 ft 376 kts 202°
2026-05-07 18:23 25.94654 55.95541 17236 ft 373 kts 214°
2026-05-07 18:23 25.92581 55.93816 16748 ft 371 kts 218°
2026-05-07 18:24 25.90622 55.91967 16271 ft 369 kts 221°
2026-05-07 18:24 25.88722 55.90065 15793 ft 367 kts 221°
2026-05-07 18:24 25.86847 55.88155 15317 ft 365 kts 222°
2026-05-07 18:24 25.84981 55.86260 14847 ft 362 kts 221°
2026-05-07 18:25 25.83082 55.84430 14364 ft 360 kts 216°
2026-05-07 18:25 25.80956 55.82986 13893 ft 357 kts 207°
2026-05-07 18:25 25.78754 55.81732 13378 ft 355 kts 205°
2026-05-07 18:25 25.76545 55.80523 12895 ft 352 kts 205°
2026-05-07 18:26 25.74355 55.79338 12424 ft 349 kts 205°
2026-05-07 18:26 25.72207 55.78182 12244 ft 336 kts 205°
2026-05-07 18:26 25.70147 55.77075 12130 ft 322 kts 205°
2026-05-07 18:26 25.68176 55.76018 12013 ft 308 kts 205°
2026-05-07 18:27 25.66284 55.75005 11912 ft 296 kts 205°
2026-05-07 18:27 25.64471 55.74034 11780 ft 284 kts 205°
2026-05-07 18:27 25.62700 55.73088 11517 ft 281 kts 205°
2026-05-07 18:27 25.61035 55.72027 11187 ft 281 kts 218°
2026-05-07 18:28 25.59841 55.70358 10926 ft 276 kts 247°
2026-05-07 18:28 25.59304 55.68316 10793 ft 278 kts 259°
2026-05-07 18:28 25.58933 55.66214 10653 ft 278 kts 260°
2026-05-07 18:28 25.58576 55.64115 10507 ft 277 kts 260°
2026-05-07 18:29 25.58211 55.62005 10359 ft 279 kts 260°
2026-05-07 18:29 25.57840 55.59896 10220 ft 279 kts 260°
2026-05-07 18:29 25.57467 55.57788 10067 ft 278 kts 259°
2026-05-07 18:29 25.57092 55.55691 9936 ft 277 kts 259°
2026-05-07 18:30 25.56718 55.53599 9785 ft 276 kts 259°
2026-05-07 18:30 25.56344 55.51513 9638 ft 276 kts 259°
2026-05-07 18:30 25.55970 55.49435 9490 ft 275 kts 259°
2026-05-07 18:30 25.55498 55.47385 9341 ft 275 kts 249°
2026-05-07 18:31 25.54404 55.45664 9208 ft 276 kts 220°
2026-05-07 18:31 25.52840 55.44439 9046 ft 276 kts 213°
2026-05-07 18:31 25.51218 55.43329 8932 ft 270 kts 212°
2026-05-07 18:31 25.49641 55.42282 8797 ft 260 kts 209°
2026-05-07 18:32 25.47961 55.41720 8658 ft 250 kts 182°
2026-05-07 18:32 25.46255 55.41986 8525 ft 249 kts 166°
2026-05-07 18:32 25.44581 55.42507 8384 ft 250 kts 163°
2026-05-07 18:32 25.42915 55.43053 8260 ft 250 kts 163°
2026-05-07 18:33 25.41247 55.43594 8127 ft 250 kts 164°
2026-05-07 18:33 25.39579 55.44127 8002 ft 249 kts 164°
2026-05-07 18:33 25.37915 55.44655 7868 ft 249 kts 164°
2026-05-07 18:33 25.36257 55.45181 7739 ft 248 kts 164°
2026-05-07 18:34 25.34599 55.45704 7608 ft 247 kts 164°
2026-05-07 18:34 25.32947 55.46220 7488 ft 247 kts 165°
2026-05-07 18:34 25.31296 55.46736 7348 ft 247 kts 165°
2026-05-07 18:34 25.29646 55.47251 7223 ft 246 kts 165°
2026-05-07 18:35 25.28012 55.47812 7087 ft 246 kts 159°
2026-05-07 18:35 25.26638 55.48912 6999 ft 246 kts 129°
2026-05-07 18:35 25.25666 55.50467 6905 ft 246 kts 122°
2026-05-07 18:35 25.24781 55.52090 6815 ft 247 kts 121°
2026-05-07 18:36 25.23910 55.53695 6716 ft 247 kts 121°
2026-05-07 18:36 25.23019 55.55324 6631 ft 247 kts 121°
2026-05-07 18:36 25.22124 55.56947 6548 ft 247 kts 122°
2026-05-07 18:36 25.21228 55.58563 6449 ft 247 kts 122°
2026-05-07 18:37 25.20332 55.60176 6347 ft 247 kts 122°
2026-05-07 18:37 25.19436 55.61788 6248 ft 246 kts 121°
2026-05-07 18:37 25.18545 55.63397 6145 ft 246 kts 122°
2026-05-07 18:37 25.17651 55.65002 6055 ft 245 kts 122°
2026-05-07 18:38 25.16759 55.66602 5962 ft 245 kts 122°
2026-05-07 18:38 25.15869 55.68202 5858 ft 244 kts 122°
2026-05-07 18:38 25.14981 55.69800 5759 ft 244 kts 122°
2026-05-07 18:38 25.14092 55.71390 5681 ft 244 kts 122°
2026-05-07 18:39 25.13201 55.72982 5600 ft 243 kts 122°
2026-05-07 18:39 25.12315 55.74571 5508 ft 243 kts 122°
2026-05-07 18:39 25.11432 55.76155 5408 ft 242 kts 122°
2026-05-07 18:39 25.10553 55.77724 5322 ft 235 kts 122°
2026-05-07 18:40 25.09715 55.79221 5193 ft 226 kts 122°
2026-05-07 18:40 25.08898 55.80683 5090 ft 222 kts 122°
2026-05-07 18:40 25.08085 55.82142 5052 ft 223 kts 122°
2026-05-07 18:40 25.07267 55.83597 4959 ft 224 kts 122°
2026-05-07 18:41 25.06306 55.84930 4866 ft 221 kts 144°
2026-05-07 18:41 25.04906 55.85466 4778 ft 213 kts 186°
2026-05-07 18:41 25.03528 55.84977 4732 ft 208 kts 211°
2026-05-07 18:41 25.02283 55.84149 4705 ft 208 kts 214°
2026-05-07 18:42 25.01159 55.83194 4604 ft 205 kts 229°
2026-05-07 18:42 25.00563 55.81795 4541 ft 204 kts 264°
2026-05-07 18:42 25.00827 55.80283 4496 ft 204 kts 295°
2026-05-07 18:42 25.01538 55.78926 4443 ft 205 kts 301°
2026-05-07 18:43 25.02329 55.77616 4358 ft 208 kts 309°
2026-05-07 18:43 25.03240 55.76384 4285 ft 207 kts 301°
2026-05-07 18:43 25.03965 55.75014 4246 ft 207 kts 300°
2026-05-07 18:43 25.04712 55.73664 4204 ft 206 kts 300°
2026-05-07 18:44 25.05442 55.72339 4016 ft 200 kts 300°
2026-05-07 18:44 25.06170 55.71003 3890 ft 205 kts 300°
2026-05-07 18:44 25.06893 55.69667 3874 ft 200 kts 299°
2026-05-07 18:44 25.07601 55.68352 3878 ft 199 kts 300°
2026-05-07 18:45 25.08319 55.67052 3885 ft 198 kts 300°
2026-05-07 18:45 25.09042 55.65760 3885 ft 198 kts 300°
2026-05-07 18:45 25.09759 55.64475 3887 ft 196 kts 300°
2026-05-07 18:45 25.10456 55.63218 3883 ft 184 kts 299°
2026-05-07 18:46 25.11095 55.62059 3886 ft 172 kts 299°
2026-05-07 18:46 25.11711 55.60945 3885 ft 170 kts 300°
2026-05-07 18:46 25.12322 55.59848 3886 ft 170 kts 300°
2026-05-07 18:46 25.12942 55.58733 3819 ft 171 kts 300°
2026-05-07 18:47 25.13557 55.57624 3626 ft 169 kts 299°
2026-05-07 18:47 25.14169 55.56519 3388 ft 168 kts 299°
2026-05-07 18:47 25.14776 55.55422 3177 ft 167 kts 299°
2026-05-07 18:47 25.15377 55.54337 2952 ft 163 kts 299°
2026-05-07 18:48 25.15962 55.53281 2744 ft 160 kts 299°
2026-05-07 18:48 25.16538 55.52240 2547 ft 158 kts 299°
2026-05-07 18:48 25.17109 55.51208 2351 ft 157 kts 300°
2026-05-07 18:48 25.17676 55.50186 2150 ft 156 kts 300°
2026-05-07 18:49 25.18238 55.49170 1958 ft 154 kts 300°
2026-05-07 18:49 25.18795 55.48164 1761 ft 153 kts 301°
2026-05-07 18:49 25.19346 55.47170 1567 ft 149 kts 301°
2026-05-07 18:49 25.19879 55.46204 1370 ft 146 kts 302°
2026-05-07 18:50 25.20410 55.45247 1194 ft 146 kts 301°
2026-05-07 18:50 25.20942 55.44286 1005 ft 146 kts 301°
2026-05-07 18:50 25.21469 55.43334 823 ft 145 kts 302°
2026-05-07 18:50 25.21999 55.42377 658 ft 147 kts 302°
2026-05-07 18:51 25.22531 55.41417 468 ft 147 kts 302°
2026-05-07 18:51 25.23062 55.40456 286 ft 146 kts 302°
2026-05-07 18:51 25.23592 55.39498 94 ft 146 kts 303°
2026-05-07 18:51 25.24099 55.38584 31 ft 129 kts 299°
2026-05-07 18:52 25.24498 55.37852 30 ft 74 kts 301°
2026-05-07 18:52 25.24650 55.37580 29 ft 34 kts 302°
2026-05-07 18:52 25.24754 55.37365 29 ft 29 kts 290°
2026-05-07 18:52 25.24783 55.37192 30 ft 23 kts 274°
2026-05-07 18:53 25.24785 55.37145 30 ft 0 kts 273°
2026-05-07 18:53 25.24785 55.37141 30 ft 4 kts 273°
2026-05-07 18:54 25.24788 55.37048 29 ft 16 kts 271°
2026-05-07 18:54 25.24808 55.36925 28 ft 15 kts 279°
2026-05-07 18:54 25.24768 55.36845 28 ft 10 kts 252°
2026-05-07 18:54 25.24774 55.36773 28 ft 10 kts 278°
2026-05-07 18:55 25.24793 55.36691 28 ft 12 kts 287°
2026-05-07 18:55 25.24827 55.36600 28 ft 14 kts 297°
2026-05-07 18:55 25.24860 55.36539 27 ft 0 kts 302°
2026-05-07 18:56 25.24882 55.36501 28 ft 8 kts 302°
2026-05-07 18:56 25.24913 55.36444 28 ft 8 kts 295°
2026-05-07 18:56 25.24891 55.36402 27 ft 7 kts 207°
2026-05-07 18:56 25.24872 55.36390 27 ft 0 kts 209°
2026-05-07 18:57 25.24860 55.36383 27 ft 4 kts 210°
2026-05-07 18:57 25.24848 55.36375 27 ft 0 kts 210°
2026-05-07 18:57 25.24843 55.36372 27 ft 0 kts 210°